Regional Weather Roundup
Issued by NWS Sterling, VA

Home | Current Version | Previous Version | Text Only | Print | Product List | Glossary On
Versions: 1 2 3 4 5 6 7 8 9 10 11 12 13 14 15 16 17 18 19 20 21 22 23 24 25 26 27 28 29 30 31 32 33 34 35 36 37 38 39 40 41 42 43 44 45 46 47 48 49 50
000
ASUS41 KLWX 251610
RWRLWX

REGIONAL WEATHER ROUNDUP
NATIONAL WEATHER SERVICE BALTIMORE MD/WASHINGTON DC
1200 PM EDT SUN SEP 25 2016

Note: "FAIR" indicates few or no clouds below 12,000 feet
with no significant weather and/or obstructions to visibility.
 TC=TEMPERATURE CELSIUS

 * =Non NWS site. Station does not report precipitation (e.g. rain,
    snow, etc.), thunder, or fog.

DCZ001-MDZ009-015-VAZ040>042-051-053>054-251700-
WASHINGTON METRO

CITY           SKY/WX    TMP DP  RH WIND       PRES   REMARKS
WASHINGTON NAT MOSUNNY   69  45  41 VRB3      30.23S
DULLES         PTSUNNY   67  42  40 E6        30.22F
ANDREWS AFB    MOSUNNY   67  48  50 VRB3      30.21S
FT BELVOIR     PTSUNNY   69  45  42 VRB2      30.22S
QUANTICO         N/A     67  52  58 NE5       30.23S
COLLEGE PARK*  SUNNY     68  43  40 NW6       30.22S
LEESBURG*      PTSUNNY   68  46  45 N3        30.23F
MANASSAS*      CLOUDY    64  48  55 CALM      30.23S
GAITHERSBURG*  MOSUNNY   66  43  42 NE5       30.26F

$$

MDZ006>007-011-014-251700-
BALTIMORE METRO

CITY           SKY/WX    TMP DP  RH WIND       PRES   REMARKS
BWI AIRPORT    MOSUNNY   67  40  37 E8        30.22S
MD SCIENCE CTR   N/A     67  41  38 MISG      30.23S
MARTIN STATE   SUNNY     66  45  45 NE8       30.24F
ANNAPOLIS      SUNNY     67  46  47 VRB5      30.22S
FORT MEADE*    SUNNY     66  41  39 NE7       30.25S

$$

MDZ012-015-019>023-251700-
MARYLAND EASTERN SHORE

CITY           SKY/WX    TMP DP  RH WIND       PRES   REMARKS
OCEAN CITY     SUNNY     72  53  51 N8G16     30.19S
SALISBURY      SUNNY     70  51  51 N6        30.19S
BAY BRIDGE AP* SUNNY     66  46  48 MISG      30.23R
CAMBRIDGE*     SUNNY     64  45  48 N6        30.20S
EASTON*        SUNNY     68  45  42 NE6       30.25S

$$

MDZ017>025-251700-
SOUTHERN MARYLAND

CITY           SKY/WX    TMP DP  RH WIND       PRES   REMARKS
PATUXENT RIVER MOSUNNY   69  47  45 NE9       30.21S
ST INIGOES     MOSUNNY   70  48  45 NE9       30.21R
LEONARDTOWN*   PTSUNNY   66  46  48 N7        30.23R

$$

MDZ003>005-251700-
NORTH CENTRAL MARYLAND

CITY           SKY/WX    TMP DP  RH WIND       PRES   REMARKS
FREDERICK*     SUNNY     68  45  42 CALM      30.25F
HAGERSTOWN APT SUNNY     68  40  35 E3        30.21F

$$

MDZ501>502-251700-
WESTERN MARYLAND

CITY           SKY/WX    TMP DP  RH WIND       PRES   REMARKS
OAKLAND*       SUNNY     61  48  63 E3        30.22F
CUMBERLAND*    CLOUDY    66  45  45 SE3       30.26F

$$

VAZ025>031-251700-
SHENANDOAH VALLEY

CITY           SKY/WX    TMP DP  RH WIND       PRES   REMARKS
WINCHESTER*    CLOUDY    64  45  48 E3        30.22F
FRONT ROYAL*   CLOUDY    61  46  59 E6        30.22F
LURAY*         CLOUDY    61  50  67 CALM      30.23S
NEW MARKET*    CLOUDY   N/A N/A N/A NE3       30.22S
STAUNTON*      CLOUDY    59  57  91 N3        30.23F
WAYNESBORO*    CLOUDY    64  56  77 SE8       30.21F

$$

WVZ021-048>050-054>055-251700-
EASTERN WEST VIRGINIA PANHANDLE

CITY           SKY/WX    TMP DP  RH WIND       PRES   REMARKS
MARTINSBURG    PTSUNNY   67  43  41 VRB3      30.21F
PETERSBURG*    CLOUDY    67  53  60 CALM      30.20F

$$

VAZ036>039-050-251700-
CENTRAL FOOTHILLS

CITY           SKY/WX    TMP DP  RH WIND       PRES   REMARKS
CHARLOTTESVILL CLOUDY    60  54  80 NE6       30.22S
CULPEPER*      CLOUDY    62  49  62 N3        30.24S
ORANGE*          N/A     61  52  72 NW6       30.25S
GORDONSVILLE*  CLOUDY    57  55  94 CALM      30.23R
WARRENTON*     CLOUDY    64  45  50 CALM      30.23S

$$

VAZ055>057-251700-
NORTH AND CENTRAL PIEDMONT

CITY           SKY/WX    TMP DP  RH WIND       PRES   REMARKS
FREDERICKSBRG* CLOUDY    66  55  67 NE7       30.22R
STAFFORD*      CLOUDY    64  51  64 NE3       30.26S

$$

NCZ024-NYZ072-PAZ021-071-VAZ022-071-251700-
OTHER REGIONAL OBSERVATIONS

CITY           SKY/WX    TMP DP  RH WIND       PRES   REMARKS
NEW YORK CITY  SUNNY     64  38  38 NE10      30.23S
PHILADELPHIA   MOSUNNY   67  42  40 VRB5      30.21F
PITTSBURGH     MOSUNNY   66  50  56 SE3       30.19F
ROANOKE        CLOUDY    69  64  84 SE7       30.21S
RICHMOND       CLOUDY    70  58  65 NE6       30.20R
RALEIGH        CLOUDY    73  66  78 SE8       30.16F

$$

ANZ530>537-251700-
MARINE OBSERVATIONS

STATION/POSITION TIME  TEMP    WIND        PRES
                       AIR SEA DIR/SP/G
                 (UTC) (F)     (DEG/KT/KT) (MB)
THOMAS PT LIGHT  1600   63 75  360/  8/ 10 1024.7S
BALT KEY BRIDGE  1542   63      20/  7/  9 1023.6S
COVE POINT       1548   64      30/  7/  9 1023.8R
LEWISETTA        1548   67 74   70/  6/  9 1022.6R
SOLOMONS ISLAND  1548   66 77  360/  7/ 11   N/A
PINEY POINT      1548          100/  2/  4   N/A

$$




USA.gov is the U.S. government's official web portal to all federal, state and local government web resources and services.